HYLAS 1

Last updated on Sat Apr 13 2024 01:02:37 GMT+0100 (British Summer Time)

1 37237U 10065A 24103.64731400 -.00000370 00000+0 00000+0 0 9998 2 37237 3.6100 82.6383 0000919 272.3713 196.5439 1.00272534 49002
UTC large
Height (km)
Speed (km/s)
/
Latitude / Longitude
Inclination (degrees)
Orbital Period (minutes)
Azimuth
Elevation
Range (km)
Doppler Factor

Next 0 passes for location: London (51.5072 / 0.1276)

Sorry there are no passes over London.